When you browse on this site, cookies collect data to enhance your experience and personalize the content and advertising you see.
Visit our Privacy Policy to learn more. By continuing to use the site, you agree to this use of cookies and data.
  • Em Portugal
  • Lista de países
  • Para 7 dias
  • Temperatura da água
  • Mapas de satélite
  • Mapa do tempo
  • Widgets de tempo
  • user-avatar
    Iniciar Sessão

    Previsão horária em Tobruk

    Hoje, 13 Dezembro, Quinta-feira

    Tempo Temperatura Precipitação Vento Pressão Humidade
    00:00 +16°C° 0 mm 3 m/s 764 mmHg 69%
    01:00 +16°C° 0 mm 3 m/s 764 mmHg 69%
    02:00 +16°C° 0 mm 3 m/s 764 mmHg 69%
    03:00 +16°C° 0 mm 3 m/s 764 mmHg 70%
    04:00 +15°C° 0 mm 4 m/s 764 mmHg 71%
    05:00 +14°C° 0 mm 4 m/s 764 mmHg 72%
    06:00 +14°C° 0 mm 4 m/s 764 mmHg 73%
    07:00 +14°C° 0 mm 4 m/s 764 mmHg 73%
    08:00 +14°C° 0 mm 5 m/s 764 mmHg 74%
    09:00 +15°C° 0 mm 5 m/s 764 mmHg 68%
    10:00 +17°C° 0 mm 6 m/s 764 mmHg 63%
    11:00 +19°C° 0 mm 6 m/s 764 mmHg 58%
    12:00 +20°C° 0 mm 7 m/s 764 mmHg 54%
    13:00 +20°C° 0 mm 7 m/s 764 mmHg 50%
    14:00 +21°C° 0 mm 7 m/s 763 mmHg 47%
    15:00 +21°C° 0 mm 7 m/s 763 mmHg 46%
    16:00 +20°C° 0 mm 6 m/s 763 mmHg 45%
    17:00 +20°C° 0 mm 5 m/s 763 mmHg 44%
    18:00 +19°C° 0 mm 5 m/s 763 mmHg 45%
    19:00 +19°C° 0 mm 5 m/s 763 mmHg 45%
    20:00 +17°C° 0 mm 5 m/s 763 mmHg 46%
    21:00 +17°C° 0 mm 5 m/s 763 mmHg 46%
    22:00 +16°C° 0 mm 5 m/s 763 mmHg 46%
    23:00 +16°C° 0 mm 5 m/s 764 mmHg 47%

    Amanhã, 14 Dezembro, Sexta-feira

    Tempo Temperatura Precipitação Vento Pressão Humidade
    00:00 +15°C° 0 mm 6 m/s 764 mmHg 47%
    01:00 +15°C° 0 mm 6 m/s 763 mmHg 47%
    02:00 +15°C° 0 mm 6 m/s 763 mmHg 47%
    03:00 +15°C° 0 mm 6 m/s 763 mmHg 48%
    04:00 +14°C° 0 mm 6 m/s 763 mmHg 49%
    05:00 +14°C° 0 mm 6 m/s 763 mmHg 50%
    06:00 +14°C° 0 mm 6 m/s 763 mmHg 51%
    07:00 +14°C° 0 mm 6 m/s 763 mmHg 52%
    08:00 +14°C° 0 mm 6 m/s 764 mmHg 53%
    09:00 +15°C° 0 mm 6 m/s 764 mmHg 49%
    10:00 +16°C° 0 mm 6 m/s 764 mmHg 44%
    11:00 +18°C° 0 mm 7 m/s 764 mmHg 40%
    12:00 +20°C° 0 mm 6 m/s 763 mmHg 37%
    13:00 +21°C° 0 mm 6 m/s 763 mmHg 35%
    14:00 +21°C° 0 mm 5 m/s 762 mmHg 32%
    15:00 +21°C° 0 mm 5 m/s 762 mmHg 33%
    16:00 +20°C° 0 mm 4 m/s 762 mmHg 34%
    17:00 +20°C° 0 mm 3 m/s 762 mmHg 35%
    18:00 +19°C° 0 mm 4 m/s 762 mmHg 37%
    19:00 +19°C° 0 mm 4 m/s 762 mmHg 38%
    20:00 +17°C° 0 mm 5 m/s 762 mmHg 40%
    21:00 +16°C° 0 mm 5 m/s 762 mmHg 43%
    22:00 +16°C° 0 mm 5 m/s 762 mmHg 47%
    23:00 +15°C° 0 mm 6 m/s 762 mmHg 50%

    Depois de amanhã, 15 Dezembro, Sábado

    Tempo Temperatura Precipitação Vento Pressão Humidade
    00:00 +15°C° 0 mm 6 m/s 762 mmHg 52%
    01:00 +15°C° 0 mm 6 m/s 761 mmHg 54%
    02:00 +14°C° 0 mm 6 m/s 761 mmHg 57%
    03:00 +14°C° 0 mm 7 m/s 761 mmHg 58%
    04:00 +14°C° 0 mm 7 m/s 760 mmHg 59%
    05:00 +14°C° 0 mm 7 m/s 760 mmHg 59%
    06:00 +14°C° 0 mm 7 m/s 760 mmHg 59%
    07:00 +14°C° 0 mm 7 m/s 760 mmHg 59%
    08:00 +12°C° 0 mm 8 m/s 760 mmHg 59%
    09:00 +15°C° 0 mm 8 m/s 760 mmHg 53%
    10:00 +16°C° 0 mm 9 m/s 760 mmHg 47%
    11:00 +18°C° 0 mm 9 m/s 760 mmHg 41%
    12:00 +19°C° 0 mm 9 m/s 759 mmHg 38%
    13:00 +21°C° 0 mm 8 m/s 758 mmHg 35%
    14:00 +22°C° 0 mm 8 m/s 758 mmHg 31%
    15:00 +21°C° 0 mm 7 m/s 757 mmHg 32%
    16:00 +21°C° 0 mm 6 m/s 757 mmHg 33%
    17:00 +20°C° 0 mm 5 m/s 757 mmHg 33%
    18:00 +19°C° 0 mm 6 m/s 757 mmHg 34%
    19:00 +17°C° 0 mm 6 m/s 757 mmHg 35%
    20:00 +17°C° 0 mm 6 m/s 757 mmHg 37%
    21:00 +16°C° 0 mm 6 m/s 757 mmHg 39%
    22:00 +16°C° 0 mm 7 m/s 757 mmHg 41%
    23:00 +15°C° 0 mm 7 m/s 757 mmHg 43%

    16 Dezembro, Domingo

    Tempo Temperatura Precipitação Vento Pressão Humidade
    00:00 +15°C° 0 mm 7 m/s 757 mmHg 48%
    01:00 +14°C° 0 mm 6 m/s 756 mmHg 53%
    02:00 +14°C° 0 mm 6 m/s 756 mmHg 58%
    03:00 +14°C° 0 mm 6 m/s 756 mmHg 58%
    04:00 +14°C° 0 mm 7 m/s 756 mmHg 58%
    05:00 +14°C° 0 mm 7 m/s 756 mmHg 57%
    06:00 +12°C° 0 mm 7 m/s 756 mmHg 61%
    07:00 +12°C° 0 mm 7 m/s 756 mmHg 65%
    08:00 +12°C° 0 mm 7 m/s 756 mmHg 69%
    09:00 +14°C° 0.3 mm 7 m/s 757 mmHg 66%
    10:00 +15°C° 0.3 mm 7 m/s 757 mmHg 63%
    11:00 +16°C° 0.3 mm 7 m/s 757 mmHg 60%
    12:00 +17°C° 0.1 mm 7 m/s 757 mmHg 57%
    13:00 +17°C° 0.1 mm 7 m/s 756 mmHg 55%
    14:00 +18°C° 0.1 mm 7 m/s 756 mmHg 53%
    15:00 +18°C° 0.1 mm 7 m/s 756 mmHg 54%
    16:00 +18°C° 0.1 mm 7 m/s 757 mmHg 56%
    17:00 +17°C° 0.1 mm 7 m/s 757 mmHg 57%
    18:00 +17°C° 0.1 mm 7 m/s 758 mmHg 60%
    19:00 +17°C° 0.1 mm 7 m/s 758 mmHg 63%
    20:00 +16°C° 0.1 mm 7 m/s 759 mmHg 67%
    21:00 +16°C° 0.1 mm 7 m/s 760 mmHg 68%
    22:00 +16°C° 0.1 mm 7 m/s 760 mmHg 69%
    23:00 +15°C° 0.1 mm 7 m/s 760 mmHg 71%

    17 Dezembro, Segunda-feira

    Tempo Temperatura Precipitação Vento Pressão Humidade
    00:00 +15°C° 0 mm 7 m/s 760 mmHg 72%
    01:00 +15°C° 0 mm 7 m/s 760 mmHg 74%
    02:00 +15°C° 0 mm 7 m/s 761 mmHg 75%
    03:00 +14°C° 0.1 mm 7 m/s 761 mmHg 78%
    04:00 +14°C° 0.1 mm 7 m/s 761 mmHg 80%
    05:00 +14°C° 0.1 mm 7 m/s 761 mmHg 82%
    06:00 +14°C° 0.1 mm 7 m/s 762 mmHg 81%
    07:00 +14°C° 0.1 mm 7 m/s 762 mmHg 80%
    08:00 +15°C° 0.1 mm 8 m/s 763 mmHg 78%
    09:00 +15°C° 0 mm 8 m/s 763 mmHg 72%
    10:00 +16°C° 0 mm 8 m/s 763 mmHg 66%
    11:00 +17°C° 0 mm 8 m/s 763 mmHg 59%
    12:00 +18°C° 0 mm 8 m/s 763 mmHg 57%
    13:00 +18°C° 0 mm 8 m/s 763 mmHg 55%
    14:00 +18°C° 0 mm 7 m/s 762 mmHg 53%
    15:00 +18°C° 0 mm 7 m/s 763 mmHg 55%
    16:00 +18°C° 0 mm 7 m/s 763 mmHg 57%
    17:00 +19°C° 0 mm 6 m/s 763 mmHg 59%
    18:00 +17°C° 0 mm 6 m/s 763 mmHg 62%
    19:00 +17°C° 0 mm 5 m/s 763 mmHg 65%
    20:00 +17°C° 0 mm 4 m/s 764 mmHg 68%
    21:00 +17°C° 0 mm 4 m/s 764 mmHg 69%
    22:00 +17°C° 0 mm 4 m/s 764 mmHg 69%
    23:00 +17°C° 0 mm 4 m/s 764 mmHg 69%

    18 Dezembro, Terça-feira

    Tempo Temperatura Precipitação Vento Pressão Humidade
    00:00 +15°C° 0 mm 5 m/s 764 mmHg 71%
    01:00 +15°C° 0 mm 5 m/s 764 mmHg 73%
    02:00 +15°C° 0 mm 5 m/s 764 mmHg 75%
    03:00 +14°C° 0 mm 6 m/s 764 mmHg 79%
    04:00 +14°C° 0 mm 6 m/s 764 mmHg 83%
    05:00 +14°C° 0 mm 6 m/s 763 mmHg 86%
    06:00 +14°C° 0 mm 6 m/s 764 mmHg 87%
    07:00 +14°C° 0 mm 6 m/s 764 mmHg 88%
    08:00 +14°C° 0 mm 6 m/s 764 mmHg 89%
    09:00 +16°C° 0 mm 6 m/s 764 mmHg 82%
    10:00 +17°C° 0 mm 7 m/s 764 mmHg 75%
    11:00 +18°C° 0 mm 7 m/s 764 mmHg 68%
    12:00 +20°C° 0 mm 7 m/s 763 mmHg 64%
    13:00 +21°C° 0 mm 7 m/s 763 mmHg 60%
    14:00 +21°C° 0 mm 7 m/s 762 mmHg 56%
    15:00 +21°C° 0.1 mm 7 m/s 762 mmHg 56%
    16:00 +21°C° 0.1 mm 7 m/s 762 mmHg 56%
    17:00 +21°C° 0.1 mm 7 m/s 762 mmHg 56%
    18:00 +20°C° 0.2 mm 7 m/s 762 mmHg 58%
    19:00 +18°C° 0.2 mm 7 m/s 763 mmHg 59%
    20:00 +18°C° 0.2 mm 8 m/s 763 mmHg 60%
    21:00 +17°C° 0 mm 8 m/s 763 mmHg 61%
    22:00 +17°C° 0 mm 9 m/s 763 mmHg 63%
    23:00 +16°C° 0 mm 9 m/s 763 mmHg 64%
    Mostrar mais